| time (UTC) | temp F | wind direction | speed MPH | gust MPH | rain 1hr in | rain 24hr in | rain mn in | humidity % | barometer mb |
| 20260831052232 | 63 | 202 | 2.0 | 4.0 | 0.00 | 0.10 | 0.10 | 94 | 1016.6 |
| 20260831051232 | 63 | 225 | 2.0 | 4.0 | 0.00 | 0.10 | 0.10 | 94 | 1016.4 |
| 20260831050232 | 63 | 225 | 2.0 | 4.0 | 0.00 | 0.10 | 0.10 | 94 | 1016.4 |
| 20260831045232 | 63 | 225 | 2.0 | 5.0 | 0.00 | 0.10 | 0.10 | 94 | 1016.4 |
| 20260831044232 | 63 | 225 | 3.0 | 6.0 | 0.00 | 0.10 | 0.10 | 94 | 1016.3 |
| 20260831043232 | 63 | 248 | 3.0 | 6.0 | 0.00 | 0.10 | 0.10 | 94 | 1016.3 |
| 20260831042231 | 63 | 270 | 4.0 | 7.0 | 0.00 | 0.10 | 0.10 | 94 | 1016.2 |
| 20260831041231 | 63 | 248 | 2.0 | 6.0 | 0.00 | 0.10 | 0.10 | 94 | 1016.2 |
| 20260831040231 | 63 | 202 | 1.0 | 3.0 | 0.00 | 0.10 | 0.10 | 94 | 1015.9 |
| 20260831035231 | 63 | 202 | 1.0 | 2.0 | 0.00 | 0.10 | 0.10 | 93 | 1015.8 |
| 20260831034233 | 63 | 202 | 1.0 | 3.0 | 0.00 | 0.10 | 0.10 | 93 | 1015.9 |
| 20260831033232 | 63 | 202 | 1.0 | 4.0 | 0.00 | 0.10 | 0.10 | 93 | 1015.8 |
| 20260831032232 | 63 | 202 | 3.0 | 6.0 | 0.00 | 0.10 | 0.10 | 93 | 1015.8 |
| 20260831031232 | 63 | 225 | 3.0 | 6.0 | 0.01 | 0.10 | 0.10 | 93 | 1015.7 |
| 20260831030232 | 63 | 225 | 4.0 | 9.0 | 0.01 | 0.10 | 0.10 | 93 | 1015.7 |
| 20260831025232 | 63 | 225 | 5.0 | 10.0 | 0.01 | 0.10 | 0.10 | 93 | 1015.6 |
| 20260831024231 | 63 | 202 | 3.0 | 9.0 | 0.01 | 0.10 | 0.10 | 93 | 1015.6 |
| 20260831023231 | 63 | 202 | 4.0 | 7.0 | 0.01 | 0.10 | 0.10 | 93 | 1015.4 |
| 20260831022231 | 63 | 202 | 2.0 | 6.0 | 0.02 | 0.10 | 0.10 | 93 | 1015.1 |
| 20260831021231 | 63 | 180 | 3.0 | 7.0 | 0.01 | 0.09 | 0.09 | 93 | 1015.0 |
| 20260831020233 | 63 | 202 | 4.0 | 9.0 | 0.01 | 0.09 | 0.09 | 92 | 1015.0 |
| 20260831015232 | 63 | 202 | 5.0 | 15.0 | 0.01 | 0.09 | 0.09 | 92 | 1015.0 |
| 20260831014232 | 63 | 202 | 6.0 | 10.0 | 0.02 | 0.09 | 0.09 | 92 | 1015.2 |
| 20260831013232 | 63 | 202 | 5.0 | 14.0 | 0.04 | 0.09 | 0.09 | 92 | 1015.1 |
| 20260831012232 | 63 | 202 | 7.0 | 11.0 | 0.08 | 0.09 | 0.09 | 92 | 1015.2 |
| 20260831011232 | 63 | 202 | 4.0 | 13.0 | 0.09 | 0.09 | 0.09 | 91 | 1015.2 |
| 20260831010231 | 63 | 202 | 3.0 | 10.0 | 0.09 | 0.09 | 0.09 | 91 | 1015.0 |
| 20260831005231 | 63 | 202 | 3.0 | 6.0 | 0.09 | 0.09 | 0.09 | 90 | 1015.0 |
| 20260831004231 | 63 | 225 | 7.0 | 12.0 | 0.08 | 0.08 | 0.08 | 89 | 1015.0 |
| 20260831003231 | 63 | 225 | 7.0 | 18.0 | 0.06 | 0.06 | 0.06 | 87 | 1015.1 |
| 20260831002231 | 64 | 248 | 8.0 | 27.0 | 0.01 | 0.01 | 0.01 | 82 | 1015.5 |
| 20260831001233 | 64 | 225 | 1.0 | 3.0 | 0.00 | 0.00 | 0.00 | 81 | 1013.6 |
| 20260831000233 | 64 | 202 | 1.0 | 2.0 | 0.00 | 0.00 | 0.00 | 81 | 1013.5 |
| 20260830235232 | 64 | 158 | 0.0 | 4.0 | 0.00 | 0.00 | 0.00 | 82 | 1013.6 |
| 20260830234232 | 63 | 135 | 1.0 | 5.0 | 0.00 | 0.00 | 0.00 | 82 | 1013.8 |
| 20260830233232 | 63 | 112 | 0.0 | 3.0 | 0.00 | 0.00 | 0.00 | 83 | 1013.8 |
| 20260830232232 | 62 | 68 | 0.0 | 2.0 | 0.00 | 0.00 | 0.00 | 84 | 1014.0 |
| 20260830231232 | 62 | 68 | 2.0 | 4.0 | 0.00 | 0.00 | 0.00 | 83 | 1014.1 |
| 20260830230231 | 62 | 68 | 2.0 | 4.0 | 0.00 | 0.00 | 0.00 | 83 | 1014.1 |
| 20260830225231 | 63 | 90 | 1.0 | 4.0 | 0.00 | 0.00 | 0.00 | 82 | 1014.3 |
| 20260830224231 | 63 | 90 | 1.0 | 2.0 | 0.00 | 0.00 | 0.00 | 82 | 1014.4 |
| 20260830223233 | 64 | 90 | 2.0 | 4.0 | 0.00 | 0.00 | 0.00 | 81 | 1014.4 |
| 20260830222233 | 64 | 90 | 2.0 | 4.0 | 0.00 | 0.00 | 0.00 | 79 | 1014.5 |
| 20260830221232 | 65 | 135 | 2.0 | 4.0 | 0.00 | 0.00 | 0.00 | 78 | 1014.6 |
| 20260830220232 | 65 | 158 | 1.0 | 4.0 | 0.00 | 0.00 | 0.00 | 77 | 1014.7 |
| 20260830215232 | 65 | 0 | 0.0 | 0.0 | 0.00 | 0.00 | 0.00 | 78 | 1014.8 |
| 20260830214232 | 65 | 0 | 0.0 | 0.0 | 0.00 | 0.00 | 0.00 | 78 | 1014.8 |
| 20260830213232 | 65 | 0 | 0.0 | 0.0 | 0.00 | 0.00 | 0.00 | 77 | 1014.8 |
| 20260830212231 | 65 | 0 | 0.0 | 0.0 | 0.00 | 0.00 | 0.00 | 75 | 1014.8 |
| 20260830211231 | 66 | 0 | 0.0 | 0.0 | 0.00 | 0.00 | 0.00 | 74 | 1014.8 |
| 20260830210231 | 66 | 0 | 0.0 | 0.0 | 0.00 | 0.00 | 0.00 | 73 | 1014.8 |
| 20260830205231 | 67 | 0 | 0.0 | 0.0 | 0.00 | 0.00 | 0.00 | 71 | 1014.8 |
| 20260830204233 | 67 | 0 | 0.0 | 0.0 | 0.00 | 0.00 | 0.00 | 70 | 1014.7 |
| 20260830203232 | 68 | 0 | 0.0 | 0.0 | 0.00 | 0.00 | 0.00 | 70 | 1014.8 |
| 20260830202232 | 68 | 0 | 0.0 | 0.0 | 0.00 | 0.00 | 0.00 | 68 | 1014.8 |
| 20260830201232 | 68 | 180 | 0.0 | 3.0 | 0.00 | 0.00 | 0.00 | 67 | 1014.8 |
| 20260830200232 | 69 | 180 | 2.0 | 3.0 | 0.00 | 0.00 | 0.00 | 66 | 1015.0 |
| 20260830195232 | 69 | 180 | 3.0 | 4.0 | 0.00 | 0.00 | 0.00 | 65 | 1015.1 |
| 20260830194232 | 69 | 180 | 2.0 | 3.0 | 0.00 | 0.00 | 0.00 | 65 | 1015.1 |
| 20260830193232 | 70 | 180 | 3.0 | 4.0 | 0.00 | 0.00 | 0.00 | 63 | 1015.1 |
| 20260830192231 | 72 | 180 | 1.0 | 4.0 | 0.00 | 0.00 | 0.00 | 61 | 1015.1 |
| 20260830191231 | 72 | 0 | 0.0 | 0.0 | 0.00 | 0.00 | 0.00 | 58 | 1015.1 |
| 20260830190231 | 73 | 0 | 0.0 | 0.0 | 0.00 | 0.00 | 0.00 | 58 | 1015.1 |
| 20260830185233 | 74 | 0 | 0.0 | 0.0 | 0.00 | 0.00 | 0.00 | 58 | 1015.0 |
| 20260830184233 | 74 | 0 | 0.0 | 0.0 | 0.00 | 0.00 | 0.00 | 57 | 1014.9 |
| 20260830183232 | 74 | 0 | 0.0 | 0.0 | 0.00 | 0.00 | 0.00 | 56 | 1014.9 |
| 20260830182232 | 75 | 0 | 0.0 | 0.0 | 0.00 | 0.00 | 0.00 | 56 | 1014.8 |
| 20260830181232 | 75 | 270 | 1.0 | 2.0 | 0.00 | 0.00 | 0.00 | 55 | 1014.8 |
| 20260830180232 | 75 | 270 | 1.0 | 3.0 | 0.00 | 0.00 | 0.00 | 55 | 1014.9 |
| 20260830175232 | 76 | 270 | 1.0 | 3.0 | 0.00 | 0.00 | 0.00 | 54 | 1015.0 |
| 20260830174231 | 76 | 292 | 2.0 | 6.0 | 0.00 | 0.00 | 0.00 | 53 | 1015.0 |
| 20260830173231 | 77 | 292 | 4.0 | 8.0 | 0.00 | 0.00 | 0.00 | 53 | 1015.0 |
| 20260830172231 | 77 | 270 | 6.0 | 10.0 | 0.00 | 0.00 | 0.00 | 51 | 1015.1 |
| 20260830171231 | 78 | 270 | 6.0 | 11.0 | 0.00 | 0.00 | 0.00 | 51 | 1015.1 |
| 20260830170231 | 78 | 270 | 7.0 | 14.0 | 0.00 | 0.00 | 0.00 | 50 | 1015.2 |
| 20260830165233 | 78 | 270 | 7.0 | 15.0 | 0.00 | 0.00 | 0.00 | 49 | 1015.1 |
| 20260830164232 | 78 | 270 | 9.0 | 17.0 | 0.00 | 0.00 | 0.00 | 48 | 1015.1 |
| 20260830163232 | 78 | 270 | 5.0 | 14.0 | 0.00 | 0.00 | 0.00 | 50 | 1015.3 |
| 20260830162232 | 78 | 292 | 6.0 | 13.0 | 0.00 | 0.00 | 0.00 | 58 | 1015.3 |
| 20260830161232 | 78 | 270 | 6.0 | 13.0 | 0.00 | 0.00 | 0.00 | 53 | 1015.2 |
| 20260830160232 | 78 | 248 | 3.0 | 11.0 | 0.00 | 0.00 | 0.00 | 57 | 1015.2 |
| 20260830155232 | 77 | 270 | 4.0 | 10.0 | 0.00 | 0.00 | 0.00 | 59 | 1015.2 |
| 20260830154231 | 77 | 292 | 4.0 | 10.0 | 0.00 | 0.00 | 0.00 | 61 | 1015.4 |
| 20260830153231 | 77 | 270 | 4.0 | 9.0 | 0.00 | 0.00 | 0.00 | 61 | 1015.3 |
| 20260830152231 | 77 | 292 | 5.0 | 9.0 | 0.00 | 0.00 | 0.00 | 61 | 1015.4 |
| 20260830151231 | 77 | 292 | 4.0 | 10.0 | 0.00 | 0.00 | 0.00 | 61 | 1015.5 |
| 20260830150233 | 77 | 292 | 5.0 | 12.0 | 0.00 | 0.00 | 0.00 | 61 | 1015.5 |
| 20260830145232 | 77 | 270 | 8.0 | 14.0 | 0.00 | 0.00 | 0.00 | 60 | 1015.6 |
| 20260830144232 | 77 | 270 | 7.0 | 13.0 | 0.00 | 0.00 | 0.00 | 61 | 1015.8 |
| 20260830143232 | 76 | 270 | 7.0 | 11.0 | 0.00 | 0.00 | 0.00 | 62 | 1015.9 |
| 20260830142232 | 76 | 270 | 9.0 | 16.0 | 0.00 | 0.00 | 0.00 | 62 | 1015.8 |
| 20260830141232 | 76 | 270 | 6.0 | 15.0 | 0.00 | 0.00 | 0.00 | 61 | 1015.8 |
| 20260830140231 | 76 | 270 | 5.0 | 11.0 | 0.00 | 0.00 | 0.00 | 63 | 1015.9 |
| 20260830135231 | 76 | 292 | 4.0 | 10.0 | 0.00 | 0.00 | 0.00 | 63 | 1016.0 |
| 20260830134231 | 75 | 292 | 6.0 | 10.0 | 0.00 | 0.00 | 0.00 | 64 | 1016.2 |
| 20260830133231 | 75 | 270 | 6.0 | 10.0 | 0.00 | 0.00 | 0.00 | 65 | 1016.3 |
| 20260830132233 | 74 | 292 | 4.0 | 11.0 | 0.00 | 0.00 | 0.00 | 66 | 1016.2 |
| 20260830131232 | 74 | 292 | 5.0 | 10.0 | 0.00 | 0.00 | 0.00 | 67 | 1016.3 |
| 20260830130232 | 74 | 292 | 5.0 | 10.0 | 0.00 | 0.00 | 0.00 | 67 | 1016.4 |
| 20260830125232 | 74 | 270 | 4.0 | 9.0 | 0.00 | 0.00 | 0.00 | 67 | 1016.5 |
| 20260830124232 | 73 | 315 | 4.0 | 8.0 | 0.00 | 0.00 | 0.00 | 69 | 1016.5 |
| 20260830123232 | 72 | 315 | 3.0 | 8.0 | 0.00 | 0.00 | 0.00 | 70 | 1016.6 |
| 20260830122232 | 72 | 68 | 1.0 | 3.0 | 0.00 | 0.00 | 0.00 | 73 | 1016.5 |
| 20260830121232 | 71 | 360 | 1.0 | 4.0 | 0.00 | 0.00 | 0.00 | 75 | 1016.5 |
| 20260830120231 | 71 | 315 | 2.0 | 7.0 | 0.00 | 0.00 | 0.00 | 74 | 1016.5 |
| 20260830115231 | 72 | 248 | 4.0 | 8.0 | 0.00 | 0.00 | 0.00 | 74 | 1016.5 |
| 20260830114231 | 72 | 225 | 3.0 | 9.0 | 0.00 | 0.00 | 0.00 | 72 | 1016.5 |
| 20260830113231 | 73 | 315 | 1.0 | 4.0 | 0.00 | 0.00 | 0.00 | 69 | 1016.4 |
| 20260830112232 | 72 | 22 | 1.0 | 3.0 | 0.00 | 0.00 | 0.00 | 72 | 1016.5 |
| 20260830111231 | 72 | 360 | 3.0 | 4.0 | 0.00 | 0.00 | 0.00 | 68 | 1016.4 |
| 20260830110231 | 72 | 338 | 3.0 | 5.0 | 0.00 | 0.00 | 0.00 | 68 | 1016.4 |
| 20260830105231 | 73 | 338 | 3.0 | 5.0 | 0.00 | 0.00 | 0.00 | 67 | 1016.6 |
| 20260830104231 | 72 | 338 | 4.0 | 9.0 | 0.00 | 0.00 | 0.00 | 68 | 1016.6 |
| 20260830103233 | 72 | 315 | 5.0 | 9.0 | 0.00 | 0.00 | 0.00 | 67 | 1016.7 |
| 20260830102232 | 73 | 315 | 4.0 | 9.0 | 0.00 | 0.00 | 0.00 | 66 | 1016.6 |
| 20260830101232 | 73 | 338 | 4.0 | 8.0 | 0.00 | 0.00 | 0.00 | 66 | 1016.7 |
| 20260830100232 | 73 | 292 | 4.0 | 7.0 | 0.00 | 0.00 | 0.00 | 67 | 1016.7 |
| 20260830095232 | 73 | 292 | 5.0 | 11.0 | 0.00 | 0.00 | 0.00 | 66 | 1016.7 |
| 20260830094231 | 73 | 292 | 6.0 | 10.0 | 0.00 | 0.00 | 0.00 | 66 | 1016.7 |
| 20260830093231 | 73 | 270 | 6.0 | 10.0 | 0.00 | 0.00 | 0.00 | 66 | 1016.9 |
| 20260830092231 | 73 | 270 | 5.0 | 9.0 | 0.00 | 0.00 | 0.00 | 66 | 1016.9 |
| 20260830091231 | 73 | 270 | 7.0 | 13.0 | 0.00 | 0.00 | 0.00 | 65 | 1017.0 |
| 20260830090233 | 73 | 225 | 5.0 | 11.0 | 0.00 | 0.00 | 0.00 | 65 | 1017.1 |
| 20260830085233 | 73 | 202 | 5.0 | 10.0 | 0.00 | 0.00 | 0.00 | 65 | 1017.0 |
| 20260830084232 | 74 | 202 | 5.0 | 10.0 | 0.00 | 0.00 | 0.00 | 65 | 1017.0 |
| 20260830083232 | 73 | 225 | 5.0 | 10.0 | 0.00 | 0.00 | 0.00 | 66 | 1017.0 |
| 20260830082232 | 72 | 248 | 4.0 | 9.0 | 0.00 | 0.00 | 0.00 | 67 | 1017.0 |
| 20260830081232 | 71 | 248 | 5.0 | 11.0 | 0.00 | 0.00 | 0.00 | 67 | 1016.8 |
| 20260830080232 | 71 | 248 | 7.0 | 12.0 | 0.00 | 0.00 | 0.00 | 68 | 1016.8 |
| 20260830075231 | 71 | 225 | 6.0 | 12.0 | 0.00 | 0.00 | 0.00 | 67 | 1016.8 |
| 20260830074231 | 72 | 202 | 6.0 | 14.0 | 0.00 | 0.00 | 0.00 | 66 | 1016.7 |
| 20260830073231 | 71 | 225 | 5.0 | 9.0 | 0.00 | 0.00 | 0.00 | 67 | 1016.6 |
| 20260830072231 | 71 | 225 | 5.0 | 10.0 | 0.00 | 0.00 | 0.00 | 67 | 1016.5 |
| 20260830071232 | 71 | 225 | 6.0 | 14.0 | 0.00 | 0.00 | 0.00 | 67 | 1016.5 |
| 20260830070232 | 70 | 225 | 6.0 | 14.0 | 0.00 | 0.00 | 0.00 | 69 | 1016.5 |
| 20260830065231 | 70 | 225 | 5.0 | 11.0 | 0.00 | 0.00 | 0.00 | 70 | 1016.5 |
| 20260830064231 | 69 | 225 | 7.0 | 14.0 | 0.00 | 0.00 | 0.00 | 71 | 1016.6 |
| 20260830063231 | 69 | 225 | 5.0 | 15.0 | 0.00 | 0.00 | 0.00 | 72 | 1016.6 |
| 20260830062231 | 68 | 202 | 4.0 | 7.0 | 0.00 | 0.00 | 0.00 | 74 | 1016.5 |
| 20260830061233 | 68 | 202 | 4.0 | 8.0 | 0.00 | 0.00 | 0.00 | 74 | 1016.5 |
| 20260830060232 | 67 | 202 | 4.0 | 9.0 | 0.00 | 0.00 | 0.00 | 75 | 1016.3 |
| 20260830055232 | 66 | 180 | 3.0 | 6.0 | 0.00 | 0.00 | 0.00 | 76 | 1016.4 |
| 20260830054232 | 66 | 202 | 3.0 | 6.0 | 0.00 | 0.00 | 0.00 | 76 | 1016.3 |
| 20260830053232 | 66 | 202 | 3.0 | 6.0 | 0.00 | 0.00 | 0.00 | 76 | 1016.4 |